Location: Lugrin
(46.4033°N, 6.6674°E)
Time: 07:18:44
(UTC+00:00)

Tsikada Rocket - Pass Details

Date: 19 January 2021
Orbit: 957 x 1009 km, 82.9° (Epoch: 04 March)

Event Time Altitude Azimuth Distance (km) Brightness Sun altitude
Exits shadow 03:06:10 11° 136° (SE) 2,618 6.5 -41.5°
Drops below altitude 10° 03:06:22 10° 137° (SE) 2,684 6.5 -41.4°
Sets 03:09:05 0° 146° (SE) 3,627 7.2 -41.0°
